Showing default

ARCTIC WEATHER SATELLITE, 60543

Orbit data source: Space-Track

ARCTIC WEATHER SATELLITE, 60543 is a payload satellite owned by ESA (NO) in SSO that was launched on Fri, 16 Aug 2024 UTC via an FALCON 9 launch vehicle from the Air Force Western Test Range (AFWTR). Payload-class satellites include a variety of spacecraft equipped with specific instruments for various scientific and technological missions. These include communications satellites like Starlink; space stations such as the ISS; scientific satellites like the Hubble; Earth observation satellites from companies like Planet Labs, Umbra, and HawkEye 360; GPS; miniature CubeSats for education and research; and military/defense satellites.

Loading next visibility...
Identifier
60543, 2024-149CD
Orbit
SSO
Country
Flag of NONO / NOR
Related business
Manufacturer
OHB-SE
Mission
Operational Civil Earth Obs Sci
Bus & Motor
INNOSAT, Unknown motor
Mass
125 kg wet, ~120 kg dry
Launch date (UTC)
2024-08-16 (2 years ago)
Launch vehicle
FALCON 9
Launch site
Air Force Western Test Range (AFWTR)
Object type
Payload
Rocket body
Debris
Shape & HBR
Box + 2 Pan, 2.6 m
Radar Cross Section
2.380 m², Large (>1 m²)

Expand to show TLE details & history
Last TLE update: 2 days ago

TLE from 2 days ago
0 ARCTIC WEATHER SATELLITE
1 60543U 24149CD  26173.19105959  .00000530  00000-0  60872-4 0  9991
2 60543  97.6801 243.5137 0003688  94.5121 265.6518 14.89788474100041
Epoch: 2026-06-22T04:35Z
TLE epoch observation values (Epoch: 2026-06-22T04:35:07.548Z)
Latitude
-0.00006°
Longitude
-95.64827°
Altitude
601.833 km
Speed
7.559 km/s
True Right ascension
16h 14m 03s
True Declination
0° 00' 00"
Sunlit
Object was in full shadow at epoch
Visualization orbit readout
Latitude
Unknown
Longitude
Unknown
Altitude
Unknown
Speed
Unknown
Apparent Right ascension
Unknown
Apparent Declination
Unknown
Sunlit
N/A
Visualization observer readout
Local Sidereal Time
12:20:44
Azimuth
Unknown
Elevation
Unknown
Doppler factor
Unknown
Orbital elements
Apogee altitude
598.186 km
Perigee altitude
593.042 km
Semi-major axis
6,973.751 km
Eccentricity
0.00037
Inclination
97.6801°
RAAN
243.5137°
Arg. of periapsis
94.5121°
True anomaly
265.60966°
Mean anomaly
265.6518°
Eccentric anomaly
265.63073°
Mean motion
3.72686 °/min
Orbital period
96.6 mins
BSTAR
0.000060872
Loading maneuver chart data...
Computing Atmospheric mass density...
Loading historical data...
Loading historical data...
Loading historical data...
Loading historical data...
Loading historical data...
Loading historical data...
Loading historical data...

Documentation

Showing up to 5 results
|